EW5855 Weather Reports


Display with metric or nautical units.
time (UTC)temp
F
wind
direction
speed
MPH
gust
MPH
rain 1hr
in
rain 24hr
in
rain mn
in
humidity
%
barometer
mb
20260504020518 38 206 1.0 3.0 0.00 0.00 0.00 79 1010.2
20260504015534 38 210 3.0 4.0 0.00 0.00 0.00 78 1010.1
20260504014530 38 216 3.0 4.0 0.00 0.00 0.00 78 1010.2
20260504013526 37 227 2.0 3.0 0.00 0.00 0.00 85 1010.0
20260504012542 38 220 0.0 1.0 0.00 0.00 0.00 83 1009.9
20260504011518 38 0.0 0.0 0.00 0.00 0.00 79 1009.8
20260504010534 39 0.0 0.0 0.00 0.00 0.00 77 1009.6
20260504005531 40 0.0 0.0 0.00 0.00 0.00 77 1009.6
20260504004526 41 208 1.0 3.0 0.00 0.00 0.00 74 1009.4
20260504003523 42 0.0 0.0 0.00 0.00 0.00 71 1009.1
20260504002519 43 233 1.0 3.0 0.00 0.00 0.00 64 1008.9
20260504001536 45 225 0.0 1.0 0.00 0.00 0.00 62 1008.8
20260504000532 45 0.0 0.0 0.00 0.00 0.00 60 1008.6
20260503235609 45 269 1.0 3.0 0.00 0.00 0.00 64 1008.5
20260503234525 46 0.0 0.0 0.00 0.00 0.00 56 1008.3
20260503233520 47 0.0 0.0 0.00 0.00 0.00 56 1008.1
20260503232557 49 0.0 0.0 0.00 0.00 0.00 49 1008.2
20260503231534 51 0.0 0.0 0.00 0.00 0.00 45 1007.9
20260503230550 52 305 2.0 4.0 0.00 0.00 0.00 44 1008.0
20260503225526 53 44 1.0 6.0 0.00 0.00 0.00 40 1007.9
20260503224521 53 36 1.0 4.0 0.00 0.00 0.00 39 1007.9
20260503223517 54 17 1.0 3.0 0.00 0.00 0.00 39 1008.0
20260503222533 54 43 1.0 3.0 0.00 0.00 0.00 38 1008.0
20260503221529 54 358 4.0 7.0 0.00 0.00 0.00 39 1008.0
20260503220525 54 311 5.0 10.0 0.00 0.00 0.00 39 1008.0
20260503215602 54 310 5.0 11.0 0.00 0.00 0.00 39 1008.1
20260503214517 55 300 3.0 6.0 0.00 0.00 0.00 39 1008.0
20260503213534 54 352 4.0 10.0 0.00 0.00 0.00 40 1008.1
20260503212530 54 269 8.0 13.0 0.00 0.00 0.00 40 1008.2
20260503211527 53 282 8.0 14.0 0.00 0.00 0.00 41 1008.1
20260503210522 53 329 7.0 14.0 0.00 0.00 0.00 41 1008.2
20260503205518 53 334 5.0 11.0 0.00 0.00 0.00 42 1008.2
20260503204554 52 285 5.0 9.0 0.00 0.00 0.00 43 1008.3
20260503203530 51 311 5.0 14.0 0.00 0.00 0.00 44 1008.3
20260503202525 51 277 7.0 14.0 0.00 0.00 0.00 44 1008.2
20260503201522 51 292 7.0 14.0 0.00 0.00 0.00 45 1008.4
20260503200519 52 269 7.0 15.0 0.00 0.00 0.00 45 1008.4
20260503195515 52 279 6.0 13.0 0.00 0.00 0.00 46 1008.6
20260503194532 51 252 4.0 10.0 0.00 0.00 0.00 48 1008.6
20260503193528 50 272 4.0 9.0 0.00 0.00 0.00 47 1008.9
20260503192523 50 282 8.0 16.0 0.00 0.00 0.00 46 1008.9
20260503191539 51 304 6.0 11.0 0.00 0.00 0.00 47 1008.9
20260503190555 49 289 6.0 11.0 0.00 0.00 0.00 47 1009.2
20260503185531 49 296 7.0 14.0 0.00 0.00 0.00 47 1009.4
20260503184527 49 301 8.0 16.0 0.00 0.00 0.00 47 1009.4
20260503183524 49 312 5.0 10.0 0.00 0.00 0.00 48 1009.3
20260503182520 48 294 6.0 13.0 0.00 0.00 0.00 49 1009.6
20260503181517 49 274 9.0 15.0 0.00 0.00 0.00 48 1009.5
20260503180533 48 282 7.0 13.0 0.00 0.00 0.00 49 1009.5
20260503175530 48 280 9.0 19.0 0.00 0.00 0.00 49 1009.6
20260503174545 49 339 4.0 8.0 0.00 0.00 0.00 49 1009.6
20260503173520 48 313 5.0 11.0 0.00 0.00 0.00 49 1009.7
20260503172616 48 347 5.0 10.0 0.00 0.00 0.00 50 1009.5
20260503171532 48 311 7.0 13.0 0.00 0.00 0.00 49 1009.6
20260503170528 48 316 4.0 7.0 0.00 0.00 0.00 48 1009.5
20260503150521 47 14 6.0 13.0 0.00 0.04 0.00 57 1010.0
20260503130534 44 36 3.0 7.0 0.00 0.04 0.00 75 1010.7
20260503110528 38 0.0 0.0 0.00 0.04 0.00 99 1010.6
20260503081520 39 0.0 0.0 0.00 0.06 0.00 99 1010.7
20260503080517 39 0.0 0.0 0.00 0.06 0.00 99 1010.8
20260503072521 39 0.0 0.0 0.00 0.06 0.00 99 1010.8
20260503071517 39 0.0 0.0 0.00 0.06 0.00 99 1010.9
20260503070533 39 0.0 0.0 0.00 0.06 0.00 99 1011.0
20260503054541 38 0.0 0.0 0.00 0.10 0.00 99 1011.5
20260503053517 38 0.0 0.0 0.00 0.11 0.00 99 1011.6
20260503052553 38 0.0 0.0 0.00 0.11 0.00 99 1011.6
20260503051529 38 0.0 0.0 0.00 0.11 0.00 99 1011.7
20260503050524 38 0.0 0.0 0.00 0.11 0.00 98 1011.8
20260503045525 38 0.0 0.0 0.00 0.12 0.00 98 1011.7
20260503044541 38 0.0 0.0 0.00 0.12 0.00 98 1011.9
20260503043517 38 0.0 0.0 0.00 0.12 0.00 98 1011.9
20260503042533 38 0.0 0.0 0.00 0.12 0.00 98 1011.9
20260503041529 38 0.0 0.0 0.00 0.13 0.00 98 1012.1
20260503040525 38 0.0 0.0 0.00 0.13 0.00 97 1012.2
20260503035521 38 0.0 0.0 0.00 0.13 0.13 97 1012.1
20260503034518 38 0.0 0.0 0.00 0.13 0.13 97 1012.2
20260503033533 38 0.0 0.0 0.00 0.13 0.13 97 1012.2
20260503032530 38 0.0 0.0 0.00 0.13 0.13 97 1012.2
20260503031526 38 218 1.0 2.0 0.00 0.13 0.13 97 1012.2
20260503030521 38 224 1.0 2.0 0.00 0.13 0.13 96 1012.3
20260503025538 38 216 1.0 2.0 0.00 0.13 0.13 96 1012.2
20260503024534 39 225 2.0 3.0 0.00 0.13 0.13 96 1012.1
20260503023550 39 214 2.0 2.0 0.00 0.13 0.13 95 1012.3
20260503022527 39 216 1.0 1.0 0.00 0.13 0.13 95 1012.4
20260503021522 40 220 1.0 2.0 0.00 0.13 0.13 93 1012.4